Volver al catálogo

STARLINK-34957

ActivoComunicacionesSSO
NORAD 65388·PAYLOAD·🇺🇸 United States

Lanzado Aug 30, 2025 desde Vandenberg Space Force Base

Loading…

Próximos Pases (próximas 24 horas)

TLE

ActualizadoSource: CelesTrak SupGP

Época: Sep 14, 2026, 22:34 UTC

1 65388C 25191K   26257.94076389  .00057695  00000+0  17919-2 0  2573
2 65388  97.2840 124.0814 0001667  92.2230  88.3300 15.33393527    14

Sigue STARLINK-34957 en tiempo real con AllMySat

Download on the App Store